Horseshoe Bay, TX

2:07 PM MDT on September 25, 2017 (GMT -0600)
Horseshoe Bay

Weather History for KDZB - May, 2014

Change the Weather History Date:

Sunday, May 18, 2014

  Actual Average (KBMQ) Record (KBMQ)
Temperature  
Mean Temperature 74 °F -  
Max Temperature 85 °F 82 °F 93 °F (2003)
Min Temperature 63 °F 62 °F 55 °F (2008)
Cooling Degree Days 9    
Growing Degree Days 24 (Base 50)    
Moisture  
Dew Point 56 °F    
Average Humidity 57    
Maximum Humidity 80    
Minimum Humidity 34    
Precipitation  
Precipitation 0.00 in - - ()
Sea Level Pressure  
Sea Level Pressure 30.02 in    
Wind  
Wind Speed 9 mph (SSE)    
Max Wind Speed 16 mph    
Max Gust Speed 24 mph    
Visibility 10 miles    
Events      
Averages and records for this station are not official NWS values.
T = Trace of Precipitation, MM = Missing Value Source: NWS Daily Summary

Daily Weather History Graph

Daily Weather History Graph

Search for Another Location

Airport or City:

Trip Planner

Search our weather history database for the weather conditions in past years. The results will help you decide how hot, cold, wet, or windy it might be!

Date:

Astronomy

May. 18, 2014 Rise Set
Actual Time 5:37 AM MDT 7:22 PM MDT
Civil Twilight 5:10 AM MDT 7:49 PM MDT
Nautical Twilight 4:38 AM MDT 8:21 PM MDT
Astronomical Twilight 4:05 AM MDT 8:55 PM MDT
Moon 11:17 PM MDT (5/18) 9:24 AM MDT (5/18)
Length of Visible Light 14h 38m
Length of Day
13h 45m
Waning Gibbous, 80% of the Moon is Illuminated
May 18
Waning Gibbous
May 21
Last Quarter
May 28
New
Jun 5
First Quarter
Jun 12
Full

Hourly Weather History & Observations

Time (MDT) Temp. Heat Index Dew Point Humidity Pressure Visibility Wind Dir Wind Speed Gust Speed Precip Events Conditions
12:00 AM 66.2 °F - 53.4 °F 63% 30.01 in 10.0 mi SSE 9.2 mph 18.4 mph N/A   Clear
12:15 AM 65.7 °F - 54.0 °F 66% 30.01 in 10.0 mi SSE 9.2 mph 17.3 mph N/A   Clear
12:35 AM 65.3 °F - 54.7 °F 68% 30.02 in 10.0 mi SSE 8.1 mph - N/A   Clear
12:55 AM 64.6 °F - 55.2 °F 72% 30.02 in 10.0 mi SSE 9.2 mph - N/A   Clear
1:15 AM 64.4 °F - 55.6 °F 73% 30.02 in 10.0 mi SSE 8.1 mph - N/A   Clear
1:35 AM 63.7 °F - 55.8 °F 75% 30.02 in 10.0 mi SSE 6.9 mph - N/A   Clear
1:55 AM 63.5 °F - 56.3 °F 77% 30.02 in 10.0 mi SSE 5.8 mph - N/A   Scattered Clouds
2:15 AM 63.9 °F - 57.2 °F 79% 30.02 in 10.0 mi SSE 9.2 mph - N/A   Mostly Cloudy
2:35 AM 64.6 °F - 58.1 °F 79% 30.01 in 10.0 mi South 8.1 mph - N/A   Overcast
2:55 AM 65.3 °F - 58.5 °F 78% 30.02 in 10.0 mi South 9.2 mph - N/A   Overcast
3:15 AM 65.7 °F - 59.0 °F 79% 30.02 in 10.0 mi South 11.5 mph 17.3 mph N/A   Overcast
3:35 AM 65.7 °F - 59.0 °F 79% 30.02 in 10.0 mi South 10.4 mph 16.1 mph N/A   Overcast
3:55 AM 65.8 °F - 59.0 °F 79% 30.02 in 10.0 mi South 11.5 mph - N/A   Overcast
4:15 AM 65.8 °F - 58.6 °F 78% 30.03 in 10.0 mi South 10.4 mph 17.3 mph N/A   Overcast
4:35 AM 65.8 °F - 58.3 °F 77% 30.03 in 10.0 mi South 10.4 mph 16.1 mph N/A   Overcast
4:55 AM 65.8 °F - 57.9 °F 76% 30.03 in 10.0 mi South 9.2 mph 16.1 mph N/A   Overcast
5:15 AM 65.7 °F - 58.1 °F 77% 30.03 in 10.0 mi South 9.2 mph - N/A   Overcast
5:35 AM 65.3 °F - 58.1 °F 77% 30.04 in 10.0 mi South 6.9 mph - N/A   Overcast
5:55 AM 65.3 °F - 58.3 °F 78% 30.05 in 10.0 mi SSE 3.5 mph - N/A   Overcast
6:15 AM 65.3 °F - 58.3 °F 78% 30.04 in 10.0 mi SSE 6.9 mph - N/A   Overcast
6:35 AM 65.3 °F - 58.8 °F 80% 30.05 in 10.0 mi SSE 5.8 mph - N/A   Overcast
6:55 AM 65.5 °F - 59.0 °F 80% 30.06 in 10.0 mi South 4.6 mph - N/A   Overcast
7:15 AM 67.1 °F - 59.0 °F 75% 30.06 in 10.0 mi South 6.9 mph - N/A   Overcast
7:35 AM 67.3 °F - 58.6 °F 74% 30.07 in 10.0 mi South 6.9 mph 18.4 mph N/A   Overcast
7:55 AM 68.5 °F - 59.0 °F 72% 30.07 in 10.0 mi South 6.9 mph 18.4 mph N/A   Overcast
8:15 AM 68.7 °F - 58.3 °F 69% 30.08 in 10.0 mi South 11.5 mph 17.3 mph N/A   Overcast
8:35 AM 69.4 °F - 57.6 °F 66% 30.08 in 10.0 mi South 13.8 mph 24.2 mph N/A   Overcast
8:55 AM 70.2 °F - 57.9 °F 65% 30.08 in 10.0 mi South 9.2 mph 19.6 mph N/A   Overcast
9:15 AM 71.2 °F - 57.6 °F 62% 30.07 in 10.0 mi South 11.5 mph 19.6 mph N/A   Overcast
9:35 AM 72.7 °F - 57.9 °F 60% 30.07 in 10.0 mi South 12.7 mph 20.7 mph N/A   Mostly Cloudy
9:55 AM 74.3 °F - 57.2 °F 55% 30.08 in 10.0 mi South 13.8 mph 24.2 mph N/A   Mostly Cloudy
10:15 AM 74.7 °F - 56.8 °F 54% 30.08 in 10.0 mi SSE 8.1 mph 19.6 mph N/A   Mostly Cloudy
10:35 AM 75.2 °F - 57.2 °F 53% 30.07 in 10.0 mi South 9.2 mph 16.1 mph N/A   Overcast
10:55 AM 75.7 °F - 57.7 °F 53% 30.07 in 10.0 mi South 9.2 mph - N/A   Overcast
11:15 AM 77.5 °F - 56.8 °F 49% 30.07 in 10.0 mi South 9.2 mph 20.7 mph N/A   Mostly Cloudy
11:35 AM 78.8 °F - 57.4 °F 48% 30.06 in 10.0 mi South 16.1 mph 21.9 mph N/A   Mostly Cloudy
11:55 AM 79.3 °F - 56.8 °F 46% 30.06 in 10.0 mi South 8.1 mph 17.3 mph N/A   Scattered Clouds
12:15 PM 80.6 °F 80.7 °F 56.7 °F 44% 30.05 in 10.0 mi South 13.8 mph 20.7 mph N/A   Clear
12:35 PM 81.0 °F 80.9 °F 56.7 °F 43% 30.04 in 10.0 mi SSW 9.2 mph 16.1 mph N/A   Scattered Clouds
12:55 PM 82.0 °F 81.6 °F 56.3 °F 41% 30.04 in 10.0 mi SSE 12.7 mph 21.9 mph N/A   Scattered Clouds
1:15 PM 82.4 °F 81.8 °F 56.1 °F 40% 30.03 in 10.0 mi South 10.4 mph 19.6 mph N/A   Clear
1:35 PM 83.3 °F 82.5 °F 55.9 °F 39% 30.02 in 10.0 mi SSE 9.2 mph 19.6 mph N/A   Clear
1:55 PM 83.3 °F 82.3 °F 55.0 °F 38% 30.01 in 10.0 mi SSE 10.4 mph 20.7 mph N/A   Clear
2:15 PM 84.6 °F 83.1 °F 54.3 °F 35% 30.01 in 10.0 mi South 9.2 mph 20.7 mph N/A   Clear
2:35 PM 84.6 °F 83.1 °F 53.8 °F 35% 30.00 in 10.0 mi SSE 12.7 mph 19.6 mph N/A   Clear
2:55 PM 84.9 °F 83.3 °F 54.0 °F 34% 30.00 in 10.0 mi South 12.7 mph 21.9 mph N/A   Clear
3:15 PM 84.6 °F 83.1 °F 54.3 °F 35% 29.99 in 10.0 mi SSE 13.8 mph 19.6 mph N/A   Clear
3:35 PM 85.1 °F 83.6 °F 54.9 °F 35% 29.98 in 10.0 mi SSE 10.4 mph 20.7 mph N/A   Clear
3:55 PM 85.1 °F 83.6 °F 54.3 °F 35% 29.98 in 10.0 mi SSE 13.8 mph 21.9 mph N/A   Clear
4:15 PM 84.7 °F 83.3 °F 54.5 °F 35% 29.98 in 10.0 mi SSE 10.4 mph 20.7 mph N/A   Clear
4:35 PM 84.4 °F 82.9 °F 53.6 °F 35% 29.98 in 10.0 mi SSE 12.7 mph 21.9 mph N/A   Clear
4:55 PM 84.6 °F 83.1 °F 54.0 °F 35% 29.97 in 10.0 mi South 11.5 mph 19.6 mph N/A   Clear
5:15 PM 84.2 °F 82.8 °F 53.6 °F 35% 29.97 in 10.0 mi South 10.4 mph 21.9 mph N/A   Clear
5:35 PM 83.5 °F 82.2 °F 53.6 °F 36% 29.97 in 10.0 mi SSE 11.5 mph 19.6 mph N/A   Clear
5:55 PM 82.9 °F 81.8 °F 53.1 °F 36% 29.97 in 10.0 mi South 13.8 mph 21.9 mph N/A   Clear
6:15 PM 82.4 °F 81.4 °F 54.0 °F 37% 29.97 in 10.0 mi South 8.1 mph 19.6 mph N/A   Clear
6:35 PM 81.3 °F 80.7 °F 53.8 °F 38% 29.97 in 10.0 mi South 10.4 mph 17.3 mph N/A   Clear
6:55 PM 80.1 °F 80.1 °F 54.5 °F 41% 29.97 in 10.0 mi SSE 12.7 mph 20.7 mph N/A   Clear
7:15 PM 78.6 °F - 54.9 °F 44% 29.98 in 10.0 mi SSE 5.8 mph 17.3 mph N/A   Clear
7:35 PM 77.5 °F - 54.5 °F 45% 29.98 in 10.0 mi SSE 8.1 mph 18.4 mph N/A   Clear
7:55 PM 76.5 °F - 54.5 °F 46% 29.99 in 10.0 mi SSE 10.4 mph 16.1 mph N/A   Clear
8:15 PM 75.9 °F - 54.0 °F 46% 30.00 in 10.0 mi SSE 8.1 mph - N/A   Clear
8:35 PM 75.2 °F - 54.5 °F 48% 30.00 in 10.0 mi SSE 8.1 mph 16.1 mph N/A   Clear
8:55 PM 74.3 °F - 55.2 °F 51% 30.00 in 10.0 mi SSE 10.4 mph - N/A   Clear
9:15 PM 73.6 °F - 55.4 °F 53% 30.01 in 10.0 mi SSE 8.1 mph 21.9 mph N/A   Clear
9:35 PM 72.7 °F - 55.6 °F 55% 30.02 in 10.0 mi South 11.5 mph 18.4 mph N/A   Clear
9:55 PM 72.0 °F - 55.6 °F 56% 30.02 in 10.0 mi SSE 10.4 mph 17.3 mph N/A   Clear
10:15 PM 71.4 °F - 55.8 °F 58% 30.02 in 10.0 mi SSE 9.2 mph 21.9 mph N/A   Clear
10:35 PM 70.7 °F - 55.8 °F 59% 30.02 in 10.0 mi SSE 9.2 mph 16.1 mph N/A   Clear
10:55 PM 69.8 °F - 55.9 °F 61% 30.02 in 10.0 mi SSE 8.1 mph 17.3 mph N/A   Clear
11:15 PM 69.1 °F - 55.8 °F 62% 30.02 in 10.0 mi South 9.2 mph 18.4 mph N/A   Clear
11:35 PM 68.5 °F - 56.3 °F 65% 30.02 in 10.0 mi SSE 8.1 mph 18.4 mph N/A   Clear